Simultaneous Nadir Overpasses (SNOs) Predictions

Prediction of SNOs between LANDSAT-8 and NOAA-19 Satellite Orbit:

Table of predicted SNOs for the next 14.0 days since TLE Epoch: 9/19/2020
Index Date (LANDSAT-8) Time (LANDSAT-8) Lat,Lon (LANDSAT-8) SZA (LANDSAT-8 ) Date (NOAA-19) Time (NOAA-19) Lat,Lon (NOAA-19) SZA (NOAA-19 ) Distance(km) Time Diff (sec)
1 09/20/2020 05:10:13 -79.94, -50.34 99.76 09/20/2020 05:09:03 -79.96, -50.28 99.76 2.90 70
2 09/20/2020 05:59:39 79.94, 117.29 80.26 09/20/2020 06:00:08 79.94, 117.24 80.27 0.91 29
3 09/22/2020 11:33:23 -79.95,-146.04 98.85 09/22/2020 11:33:17 -79.95,-146.09 98.85 0.94 6
4 09/24/2020 17:07:07 79.95, -49.45 82.05 09/24/2020 17:06:38 79.96, -49.45 82.04 0.59 29
5 09/24/2020 17:56:35 -79.93, 117.96 97.99 09/24/2020 17:57:32 -79.94, 118.09 97.95 2.90 57
6 09/26/2020 22:40:52 -79.97, 47.22 97.06 09/26/2020 22:39:48 -79.96, 47.31 97.08 1.83 64
7 09/26/2020 23:30:18 79.96,-145.18 82.95 09/26/2020 23:30:53 79.95,-145.34 82.95 3.18 35
8 09/29/2020 05:04:03 -79.97, -48.51 96.15 09/29/2020 05:04:03 -79.95, -48.51 96.17 2.75 0
9 10/01/2020 10:37:47 79.97, 48.02 84.73 10/01/2020 10:37:23 79.96, 48.14 84.72 2.69 24
